Year,Month,Day,Hour,Minute,Value (Times are PST for temperature in C)
2012,03,10,00,02,6.60
2012,03,10,00,03,6.60
2012,03,10,00,05,6.60
2012,03,10,00,06,6.60
2012,03,10,00,07,6.60
2012,03,10,00,08,6.60
2012,03,10,00,09,6.60
2012,03,10,00,11,6.60
2012,03,10,00,13,6.50
2012,03,10,00,15,6.60
2012,03,10,00,16,6.50
2012,03,10,00,19,6.50
2012,03,10,00,20,6.40
2012,03,10,00,21,6.40
2012,03,10,00,22,6.40
2012,03,10,00,24,6.40
2012,03,10,00,25,6.40
2012,03,10,00,26,6.30
2012,03,10,00,28,6.30
2012,03,10,00,29,6.30
2012,03,10,00,30,6.30
2012,03,10,00,31,6.30
2012,03,10,00,32,6.30
2012,03,10,00,34,6.30
2012,03,10,00,35,6.30
2012,03,10,00,36,6.30
2012,03,10,00,37,6.30
2012,03,10,00,39,6.30
2012,03,10,00,40,6.30
2012,03,10,00,41,6.30
2012,03,10,00,42,6.30
2012,03,10,00,44,6.30
2012,03,10,00,45,6.30
2012,03,10,00,46,6.30
2012,03,10,00,48,6.30
2012,03,10,00,49,6.30
2012,03,10,00,50,6.30
2012,03,10,00,51,6.30
2012,03,10,00,53,6.30
2012,03,10,00,54,6.30
2012,03,10,00,55,6.30
2012,03,10,00,56,6.30
2012,03,10,00,57,6.30
2012,03,10,00,59,6.30
2012,03,10,01,00,6.30
2012,03,10,01,01,6.30
2012,03,10,01,02,6.30
2012,03,10,01,03,6.30
2012,03,10,01,04,6.30
2012,03,10,01,05,6.30
2012,03,10,01,06,6.30
2012,03,10,01,07,6.30
2012,03,10,01,09,6.30
2012,03,10,01,10,6.30
2012,03,10,01,11,6.30
2012,03,10,01,13,6.20
2012,03,10,01,14,6.20
2012,03,10,01,15,6.20
2012,03,10,01,16,6.20
2012,03,10,01,17,6.20
2012,03,10,01,19,6.20
2012,03,10,01,21,6.20
2012,03,10,01,22,6.20
2012,03,10,01,24,6.10
2012,03,10,01,25,6.10
2012,03,10,01,26,6.10
2012,03,10,01,27,6.00
2012,03,10,01,28,6.00
2012,03,10,01,30,6.00
2012,03,10,01,31,5.90
2012,03,10,01,32,5.90
2012,03,10,01,33,5.90
2012,03,10,01,35,5.90
2012,03,10,01,36,5.80
2012,03,10,01,37,5.80
2012,03,10,01,38,5.80
2012,03,10,01,40,5.80
2012,03,10,01,41,5.80
2012,03,10,01,42,5.80
2012,03,10,01,43,5.80
2012,03,10,01,45,5.80
2012,03,10,01,46,5.80
2012,03,10,01,47,5.80
2012,03,10,01,48,5.80
2012,03,10,01,49,5.80
2012,03,10,01,51,5.80
2012,03,10,01,52,5.80
2012,03,10,01,53,5.80
2012,03,10,01,54,5.80
2012,03,10,01,56,5.70
2012,03,10,01,57,5.70
2012,03,10,01,58,5.70
2012,03,10,01,59,5.70
2012,03,10,02,00,5.70
2012,03,10,02,01,5.70
2012,03,10,02,02,5.70
2012,03,10,02,03,5.70
2012,03,10,02,05,5.70
2012,03,10,02,06,5.70
2012,03,10,02,07,5.70
2012,03,10,02,08,5.60
2012,03,10,02,10,5.60
2012,03,10,02,11,5.60
2012,03,10,02,12,5.60
2012,03,10,02,14,5.60
2012,03,10,02,15,5.60
2012,03,10,02,16,5.60
2012,03,10,02,17,5.60
2012,03,10,02,18,5.60
2012,03,10,02,19,5.60
2012,03,10,02,20,5.60
2012,03,10,02,21,5.60
2012,03,10,02,22,5.60
2012,03,10,02,23,5.60
2012,03,10,02,25,5.60
2012,03,10,02,26,5.60
2012,03,10,02,27,5.60
2012,03,10,02,28,5.60
2012,03,10,02,29,5.60
2012,03,10,02,30,5.50
2012,03,10,02,31,5.60
2012,03,10,02,32,5.50
2012,03,10,02,33,5.50
2012,03,10,02,34,5.50
2012,03,10,02,35,5.50
2012,03,10,02,36,5.50
2012,03,10,02,37,5.50
2012,03,10,02,38,5.50
2012,03,10,02,39,5.50
2012,03,10,02,40,5.40
2012,03,10,02,41,5.40
2012,03,10,02,42,5.40
2012,03,10,02,43,5.40
2012,03,10,02,44,5.40
2012,03,10,02,45,5.40
2012,03,10,02,46,5.40
2012,03,10,02,47,5.40
2012,03,10,02,48,5.40
2012,03,10,02,49,5.40
2012,03,10,02,50,5.40
2012,03,10,02,51,5.40
2012,03,10,02,52,5.40
2012,03,10,02,53,5.40
2012,03,10,02,54,5.40
2012,03,10,02,55,5.40
2012,03,10,02,56,5.40
2012,03,10,02,57,5.40
2012,03,10,02,58,5.40
2012,03,10,02,59,5.40
2012,03,10,03,00,5.40
2012,03,10,03,01,5.40
2012,03,10,03,02,5.40
2012,03,10,03,03,5.40
2012,03,10,03,04,5.40
2012,03,10,03,05,5.40
2012,03,10,03,06,5.40
2012,03,10,03,07,5.40
2012,03,10,03,08,5.50
2012,03,10,03,09,5.50
2012,03,10,03,10,5.50
2012,03,10,03,11,5.50
2012,03,10,03,12,5.50
2012,03,10,03,13,5.50
2012,03,10,03,14,5.50
2012,03,10,03,16,5.50
2012,03,10,03,17,5.50
2012,03,10,03,18,5.50
2012,03,10,03,19,5.50
2012,03,10,03,20,5.60
2012,03,10,03,21,5.60
2012,03,10,03,22,5.60
2012,03,10,03,23,5.60
2012,03,10,03,24,5.60
2012,03,10,03,25,5.60
2012,03,10,03,26,5.60
2012,03,10,03,27,5.60
2012,03,10,03,28,5.60
2012,03,10,03,29,5.60
2012,03,10,03,30,5.50
2012,03,10,03,31,5.50
2012,03,10,03,32,5.50
2012,03,10,03,33,5.50
2012,03,10,03,34,5.50
2012,03,10,03,35,5.50
2012,03,10,03,36,5.50
2012,03,10,03,37,5.50
2012,03,10,03,38,5.50
2012,03,10,03,39,5.50
2012,03,10,03,40,5.50
2012,03,10,03,41,5.50
2012,03,10,03,42,5.50
2012,03,10,03,43,5.50
2012,03,10,03,44,5.50
2012,03,10,03,45,5.50
2012,03,10,03,46,5.50
2012,03,10,03,47,5.50
2012,03,10,03,48,5.50
2012,03,10,03,50,5.50
2012,03,10,03,51,5.50
2012,03,10,03,52,5.50
2012,03,10,03,53,5.50
2012,03,10,03,54,5.40
2012,03,10,03,55,5.40
2012,03,10,03,56,5.40
2012,03,10,03,57,5.40
2012,03,10,03,58,5.40
2012,03,10,03,59,5.40
2012,03,10,04,00,5.40
2012,03,10,04,01,5.30
2012,03,10,04,02,5.30
2012,03,10,04,03,5.30
2012,03,10,04,04,5.30
2012,03,10,04,05,5.20
2012,03,10,04,06,5.20
2012,03,10,04,07,5.20
2012,03,10,04,08,5.20
2012,03,10,04,09,5.20
2012,03,10,04,10,5.20
2012,03,10,04,11,5.20
2012,03,10,04,12,5.20
2012,03,10,04,13,5.20
2012,03,10,04,14,5.10
2012,03,10,04,15,5.10
2012,03,10,04,16,5.10
2012,03,10,04,17,5.10
2012,03,10,04,18,5.10
2012,03,10,04,19,5.10
2012,03,10,04,20,5.10
2012,03,10,04,21,5.10
2012,03,10,04,22,5.10
2012,03,10,04,23,5.10
2012,03,10,04,24,5.10
2012,03,10,04,25,5.10
2012,03,10,04,28,5.10
2012,03,10,04,29,5.10
2012,03,10,04,30,5.10
2012,03,10,04,31,5.10
2012,03,10,04,33,5.10
2012,03,10,04,34,5.00
2012,03,10,04,35,5.00
2012,03,10,04,36,5.00
2012,03,10,04,37,5.00
2012,03,10,04,39,5.00
2012,03,10,04,40,5.00
2012,03,10,04,41,5.00
2012,03,10,04,42,5.00
2012,03,10,04,44,5.00
2012,03,10,04,45,5.00
2012,03,10,04,46,4.90
2012,03,10,04,48,4.90
2012,03,10,04,49,5.00
2012,03,10,04,50,4.90
2012,03,10,04,52,4.90
2012,03,10,04,53,5.00
2012,03,10,04,54,5.00
2012,03,10,04,55,5.00
2012,03,10,04,57,5.00
2012,03,10,04,58,5.00
2012,03,10,04,59,5.00
2012,03,10,05,00,5.00
2012,03,10,05,02,5.00
2012,03,10,05,03,5.00
2012,03,10,05,04,5.00
2012,03,10,05,06,5.00
2012,03,10,05,07,5.00
2012,03,10,05,08,5.00
2012,03,10,05,09,5.00
2012,03,10,05,11,5.00
2012,03,10,05,12,5.00
2012,03,10,05,13,5.00
2012,03,10,05,14,5.00
2012,03,10,05,16,5.00
2012,03,10,05,17,5.00
2012,03,10,05,19,5.00
2012,03,10,05,20,5.00
2012,03,10,05,21,5.00
2012,03,10,05,22,4.90
2012,03,10,05,24,4.90
2012,03,10,05,25,4.90
2012,03,10,05,26,4.90
2012,03,10,05,27,4.90
2012,03,10,05,29,4.90
2012,03,10,05,31,4.90
2012,03,10,05,33,5.00
2012,03,10,05,34,4.90
2012,03,10,05,35,4.90
2012,03,10,05,37,4.90
2012,03,10,05,38,5.00
2012,03,10,05,39,5.00
2012,03,10,05,40,5.00
2012,03,10,05,41,5.00
2012,03,10,05,42,5.00
2012,03,10,05,44,5.00
2012,03,10,05,45,5.10
2012,03,10,05,46,5.10
2012,03,10,05,47,5.10
2012,03,10,05,49,5.10
2012,03,10,05,51,5.00
2012,03,10,05,52,5.00
2012,03,10,05,53,5.00
2012,03,10,05,54,5.00
2012,03,10,05,56,5.00
2012,03,10,05,57,5.00
2012,03,10,05,58,5.00
2012,03,10,05,59,5.00
2012,03,10,06,00,5.00
2012,03,10,06,02,4.90
2012,03,10,06,03,4.90
2012,03,10,06,04,4.90
2012,03,10,06,05,4.90
2012,03,10,06,07,4.90
2012,03,10,06,08,4.90
2012,03,10,06,09,4.90
2012,03,10,06,10,4.90
2012,03,10,06,11,4.90
2012,03,10,06,12,4.90
2012,03,10,06,14,4.80
2012,03,10,06,15,4.80
2012,03,10,06,16,4.80
2012,03,10,06,17,4.80
2012,03,10,06,18,4.80
2012,03,10,06,20,4.80
2012,03,10,06,21,4.80
2012,03,10,06,22,4.80
2012,03,10,06,23,4.80
2012,03,10,06,24,4.80
2012,03,10,06,26,4.80
2012,03,10,06,27,4.80
2012,03,10,06,28,4.70
2012,03,10,06,29,4.70
2012,03,10,06,31,4.70
2012,03,10,06,32,4.70
2012,03,10,06,33,4.70
2012,03,10,06,34,4.70
2012,03,10,06,36,4.70
2012,03,10,06,37,4.60
2012,03,10,06,38,4.60
2012,03,10,06,39,4.60
2012,03,10,06,41,4.60
2012,03,10,06,42,4.60
2012,03,10,06,43,4.60
2012,03,10,06,44,4.60
2012,03,10,06,45,4.60
2012,03,10,06,47,4.60
2012,03,10,06,48,4.60
2012,03,10,06,49,4.50
2012,03,10,06,50,4.50
2012,03,10,06,52,4.50
2012,03,10,06,53,4.40
2012,03,10,06,54,4.40
2012,03,10,06,55,4.40
2012,03,10,06,57,4.40
2012,03,10,06,58,4.40
2012,03,10,06,59,4.40
2012,03,10,07,00,4.40
2012,03,10,07,02,4.40
2012,03,10,07,03,4.40
2012,03,10,07,04,4.40
2012,03,10,07,05,4.40
2012,03,10,07,07,4.40
2012,03,10,07,08,4.40
2012,03,10,07,09,4.40
2012,03,10,07,10,4.40
2012,03,10,07,11,4.40
2012,03,10,07,13,4.40
2012,03,10,07,14,4.40
2012,03,10,07,15,4.40
2012,03,10,07,17,4.40
2012,03,10,07,18,4.40
2012,03,10,07,19,4.50
2012,03,10,07,20,4.50
2012,03,10,07,21,4.50
2012,03,10,07,23,4.50
2012,03,10,07,24,4.60
2012,03,10,07,25,4.60
2012,03,10,07,26,4.60
2012,03,10,07,28,4.60
2012,03,10,07,29,4.60
2012,03,10,07,30,4.60
2012,03,10,07,31,4.60
2012,03,10,07,33,4.60
2012,03,10,07,34,4.70
2012,03,10,07,35,4.70
2012,03,10,07,36,4.70
2012,03,10,07,37,4.70
2012,03,10,07,39,4.70
2012,03,10,07,40,4.80
2012,03,10,07,41,4.80
2012,03,10,07,43,4.80
2012,03,10,07,44,4.80
2012,03,10,07,45,4.80
2012,03,10,07,46,4.80
2012,03,10,07,48,4.80
2012,03,10,07,49,4.80
2012,03,10,07,50,4.80
2012,03,10,07,51,4.80
2012,03,10,07,53,4.80
2012,03,10,07,54,4.80
2012,03,10,07,55,4.90
2012,03,10,07,56,4.90
2012,03,10,07,58,4.90
2012,03,10,07,59,4.90
2012,03,10,08,01,4.90
2012,03,10,08,02,4.90
2012,03,10,08,04,4.90
2012,03,10,08,05,4.90
2012,03,10,08,06,4.90
2012,03,10,08,08,4.90
2012,03,10,08,09,4.90
2012,03,10,08,10,4.90
2012,03,10,08,12,5.00
2012,03,10,08,13,5.00
2012,03,10,08,14,5.00
2012,03,10,08,15,5.10
2012,03,10,08,17,5.10
2012,03,10,08,18,5.10
2012,03,10,08,19,5.10
2012,03,10,08,21,5.10
2012,03,10,08,22,5.10
2012,03,10,08,23,5.10
2012,03,10,08,24,5.10
2012,03,10,08,25,5.20
2012,03,10,08,27,5.20
2012,03,10,08,28,5.20
2012,03,10,08,29,5.20
2012,03,10,08,30,5.20
2012,03,10,08,32,5.20
2012,03,10,08,33,5.20
2012,03,10,08,34,5.20
2012,03,10,08,35,5.20
2012,03,10,08,37,5.30
2012,03,10,08,38,5.30
2012,03,10,08,39,5.30
2012,03,10,08,41,5.30
2012,03,10,08,42,5.40
2012,03,10,08,43,5.40
2012,03,10,08,45,5.50
2012,03,10,08,46,5.60
2012,03,10,08,47,5.60
2012,03,10,08,48,5.60
2012,03,10,08,49,5.70
2012,03,10,08,51,5.70
2012,03,10,08,52,5.70
2012,03,10,08,53,5.80
2012,03,10,08,54,5.80
2012,03,10,08,55,5.80
2012,03,10,08,56,5.80
2012,03,10,08,58,5.90
2012,03,10,08,59,5.90
2012,03,10,09,00,5.90
2012,03,10,09,01,5.90
2012,03,10,09,03,5.90
2012,03,10,09,04,6.00
2012,03,10,09,05,6.10
2012,03,10,09,06,6.10
2012,03,10,09,07,6.10
2012,03,10,09,09,6.10
2012,03,10,09,10,6.10
2012,03,10,09,11,6.20
2012,03,10,09,12,6.20
2012,03,10,09,14,6.20
2012,03,10,09,15,6.20
2012,03,10,09,16,6.20
2012,03,10,09,18,6.20
2012,03,10,09,19,6.20
2012,03,10,09,20,6.20
2012,03,10,09,21,6.10
2012,03,10,09,22,6.10
2012,03,10,09,23,6.10
2012,03,10,09,25,6.10
2012,03,10,09,26,6.10
2012,03,10,09,27,6.20
2012,03,10,09,28,6.20
2012,03,10,09,30,6.20
2012,03,10,09,31,6.20
2012,03,10,09,32,6.20
2012,03,10,09,33,6.20
2012,03,10,09,34,6.20
2012,03,10,09,35,6.20
2012,03,10,09,36,6.20
2012,03,10,09,37,6.20
2012,03,10,09,38,6.20
2012,03,10,09,39,6.20
2012,03,10,09,40,6.20
2012,03,10,09,42,6.20
2012,03,10,09,43,6.10
2012,03,10,09,44,6.10
2012,03,10,09,45,6.10
2012,03,10,09,47,6.10
2012,03,10,09,48,6.10
2012,03,10,09,49,6.10
2012,03,10,09,50,6.10
2012,03,10,09,51,6.10
2012,03,10,09,52,6.10
2012,03,10,09,53,6.10
2012,03,10,09,54,6.10
2012,03,10,09,55,6.10
2012,03,10,09,56,6.10
2012,03,10,09,57,6.10
2012,03,10,09,58,6.10
2012,03,10,09,59,6.10
2012,03,10,10,00,6.10
2012,03,10,10,01,6.10
2012,03,10,10,02,6.10
2012,03,10,10,03,6.10
2012,03,10,10,04,6.10
2012,03,10,10,05,6.10
2012,03,10,10,07,6.10
2012,03,10,10,08,6.10
2012,03,10,10,09,6.10
2012,03,10,10,10,6.10
2012,03,10,10,11,6.20
2012,03,10,10,12,6.20
2012,03,10,10,13,6.20
2012,03,10,10,14,6.20
2012,03,10,10,15,6.30
2012,03,10,10,16,6.30
2012,03,10,10,17,6.30
2012,03,10,10,18,6.40
2012,03,10,10,19,6.40
2012,03,10,10,20,6.40
2012,03,10,10,21,6.40
2012,03,10,10,22,6.40
2012,03,10,10,23,6.40
2012,03,10,10,24,6.40
2012,03,10,10,26,6.40
2012,03,10,10,27,6.40
2012,03,10,10,28,6.40
2012,03,10,10,29,6.40
2012,03,10,10,30,6.50
2012,03,10,10,32,6.60
2012,03,10,10,33,6.60
2012,03,10,10,34,6.60
2012,03,10,10,36,6.70
2012,03,10,10,37,6.70
2012,03,10,10,38,6.70
2012,03,10,10,39,6.80
2012,03,10,10,41,6.80
2012,03,10,10,42,6.80
2012,03,10,10,43,6.80
2012,03,10,10,45,6.80
2012,03,10,10,46,6.80
2012,03,10,10,47,6.80
2012,03,10,10,48,6.80
2012,03,10,10,49,6.80
2012,03,10,10,50,6.80
2012,03,10,10,51,6.80
2012,03,10,10,52,6.90
2012,03,10,10,54,7.00
2012,03,10,10,55,7.00
2012,03,10,10,56,6.90
2012,03,10,10,57,6.90
2012,03,10,10,58,6.90
2012,03,10,11,00,7.00
2012,03,10,11,01,7.00
2012,03,10,11,02,6.90
2012,03,10,11,03,6.90
2012,03,10,11,04,6.80
2012,03,10,11,06,6.80
2012,03,10,11,07,6.80
2012,03,10,11,08,6.80
2012,03,10,11,10,6.80
2012,03,10,11,11,6.90
2012,03,10,11,12,6.90
2012,03,10,11,13,7.10
2012,03,10,11,15,7.10
2012,03,10,11,16,7.10
2012,03,10,11,17,7.10
2012,03,10,11,19,7.10
2012,03,10,11,20,7.10
2012,03,10,11,21,7.00
2012,03,10,11,22,7.00
2012,03,10,11,24,6.90
2012,03,10,11,25,6.90
2012,03,10,11,26,7.00
2012,03,10,11,27,7.00
2012,03,10,11,29,7.10
2012,03,10,11,31,7.10
2012,03,10,11,32,7.10
2012,03,10,11,34,7.20
2012,03,10,11,35,7.20
2012,03,10,11,36,7.30
2012,03,10,11,37,7.30
2012,03,10,11,38,7.40
2012,03,10,11,40,7.60
2012,03,10,11,41,7.70
2012,03,10,11,42,7.80
2012,03,10,11,43,7.90
2012,03,10,11,45,7.90
2012,03,10,11,46,7.90
2012,03,10,11,47,7.90
2012,03,10,11,48,7.90
2012,03,10,11,50,7.90
2012,03,10,11,51,7.90
2012,03,10,11,52,8.10
2012,03,10,11,53,8.10
2012,03,10,11,54,8.20
2012,03,10,11,56,8.30
2012,03,10,11,57,8.40
2012,03,10,11,58,8.60
2012,03,10,11,59,8.60
2012,03,10,12,02,8.70
2012,03,10,12,03,8.70
2012,03,10,12,04,8.80
2012,03,10,12,05,8.90
2012,03,10,12,06,9.00
2012,03,10,12,08,9.00
2012,03,10,12,09,9.10
2012,03,10,12,10,9.10
2012,03,10,12,11,9.10
2012,03,10,12,12,9.10
2012,03,10,12,14,9.10
2012,03,10,12,15,9.10
2012,03,10,12,16,9.10
2012,03,10,12,17,9.10
2012,03,10,12,18,9.10
2012,03,10,12,20,9.10
2012,03,10,12,21,9.00
2012,03,10,12,22,8.90
2012,03,10,12,24,8.90
2012,03,10,12,25,8.90
2012,03,10,12,26,8.80
2012,03,10,12,27,8.70
2012,03,10,12,28,8.70
2012,03,10,12,30,8.70
2012,03,10,12,31,8.70
2012,03,10,12,32,8.60
2012,03,10,12,33,8.60
2012,03,10,12,34,8.60
2012,03,10,12,35,8.60
2012,03,10,12,36,8.60
2012,03,10,12,37,8.50
2012,03,10,12,39,8.60
2012,03,10,12,40,8.60
2012,03,10,12,41,8.60
2012,03,10,12,42,8.60
2012,03,10,12,44,8.40
2012,03,10,12,45,8.30
2012,03,10,12,46,8.20
2012,03,10,12,47,8.10
2012,03,10,12,48,8.10
2012,03,10,12,50,8.00
2012,03,10,12,51,8.00
2012,03,10,12,52,8.10
2012,03,10,12,53,8.10
2012,03,10,12,55,8.00
2012,03,10,12,56,8.00
2012,03,10,12,57,7.90
2012,03,10,12,58,7.90
2012,03,10,12,59,7.80
2012,03,10,13,00,7.80
2012,03,10,13,01,7.70
2012,03,10,13,02,7.60
2012,03,10,13,03,7.60
2012,03,10,13,05,7.60
2012,03,10,13,06,7.70
2012,03,10,13,07,7.70
2012,03,10,13,08,7.70
2012,03,10,13,10,7.70
2012,03,10,13,11,7.70
2012,03,10,13,12,7.80
2012,03,10,13,13,7.80
2012,03,10,13,15,7.70
2012,03,10,13,16,7.70
2012,03,10,13,17,7.60
2012,03,10,13,18,7.50
2012,03,10,13,19,7.60
2012,03,10,13,20,7.50
2012,03,10,13,21,7.50
2012,03,10,13,22,7.60
2012,03,10,13,23,7.60
2012,03,10,13,24,7.60
2012,03,10,13,25,7.60
2012,03,10,13,26,7.60
2012,03,10,13,27,7.60
2012,03,10,13,29,7.60
2012,03,10,13,30,7.60
2012,03,10,13,31,7.60
2012,03,10,13,32,7.70
2012,03,10,13,33,7.70
2012,03,10,13,34,7.80
2012,03,10,13,35,7.80
2012,03,10,13,36,7.80
2012,03,10,13,37,7.80
2012,03,10,13,38,7.80
2012,03,10,13,39,7.80
2012,03,10,13,40,7.80
2012,03,10,13,41,7.90
2012,03,10,13,42,7.90
2012,03,10,13,43,7.90
2012,03,10,13,45,8.00
2012,03,10,13,46,8.00
2012,03,10,13,47,7.90
2012,03,10,13,49,8.00
2012,03,10,13,50,8.00
2012,03,10,13,51,8.10
2012,03,10,13,52,8.10
2012,03,10,13,54,8.10
2012,03,10,13,55,8.20
2012,03,10,13,56,8.10
2012,03,10,13,57,8.10
2012,03,10,13,59,8.10
2012,03,10,14,00,8.10
2012,03,10,14,01,8.00
2012,03,10,14,03,8.00
2012,03,10,14,04,7.90
2012,03,10,14,05,7.90
2012,03,10,14,06,7.90
2012,03,10,14,07,8.00
2012,03,10,14,08,7.90
2012,03,10,14,09,7.90
2012,03,10,14,10,7.90
2012,03,10,14,11,7.90
2012,03,10,14,12,7.90
2012,03,10,14,13,7.90
2012,03,10,14,14,7.90
2012,03,10,14,15,7.90
2012,03,10,14,16,7.80
2012,03,10,14,18,7.80
2012,03,10,14,19,7.70
2012,03,10,14,20,7.70
2012,03,10,14,21,7.70
2012,03,10,14,23,7.70
2012,03,10,14,24,7.70
2012,03,10,14,25,7.70
2012,03,10,14,26,7.60
2012,03,10,14,27,7.60
2012,03,10,14,28,7.60
2012,03,10,14,29,7.60
2012,03,10,14,30,7.60
2012,03,10,14,31,7.60
2012,03,10,14,33,7.60
2012,03,10,14,34,7.60
2012,03,10,14,36,7.60
2012,03,10,14,37,7.60
2012,03,10,14,38,7.60
2012,03,10,14,39,7.60
2012,03,10,14,40,7.60
2012,03,10,14,41,7.60
2012,03,10,14,42,7.60
2012,03,10,14,43,7.60
2012,03,10,14,44,7.60
2012,03,10,14,46,7.70
2012,03,10,14,47,7.80
2012,03,10,14,48,7.80
2012,03,10,14,49,7.90
2012,03,10,14,51,7.90
2012,03,10,14,52,7.90
2012,03,10,14,53,7.80
2012,03,10,14,54,7.80
2012,03,10,14,56,7.70
2012,03,10,14,57,7.70
2012,03,10,14,58,7.70
2012,03,10,14,59,7.80
2012,03,10,15,01,7.90
2012,03,10,15,02,7.90
2012,03,10,15,03,8.00
2012,03,10,15,05,8.00
2012,03,10,15,06,8.00
2012,03,10,15,07,8.00
2012,03,10,15,08,8.00
2012,03,10,15,10,8.00
2012,03,10,15,11,7.90
2012,03,10,15,12,7.90
2012,03,10,15,13,7.90
2012,03,10,15,15,7.90
2012,03,10,15,16,8.00
2012,03,10,15,17,7.90
2012,03,10,15,18,7.90
2012,03,10,15,20,7.80
2012,03,10,15,21,7.90
2012,03,10,15,22,7.90
2012,03,10,15,23,7.90
2012,03,10,15,24,7.80
2012,03,10,15,26,7.80
2012,03,10,15,27,7.80
2012,03,10,15,30,7.80
2012,03,10,15,31,7.80
2012,03,10,15,32,7.90
2012,03,10,15,33,7.90
2012,03,10,15,34,7.90
2012,03,10,15,35,7.80
2012,03,10,15,36,7.80
2012,03,10,15,37,7.70
2012,03,10,15,38,7.70
2012,03,10,15,39,7.70
2012,03,10,15,40,7.70
2012,03,10,15,41,7.80
2012,03,10,15,42,7.80
2012,03,10,15,43,7.80
2012,03,10,15,44,7.80
2012,03,10,15,45,7.80
2012,03,10,15,46,7.80
2012,03,10,15,47,7.70
2012,03,10,15,48,7.70
2012,03,10,15,49,7.70
2012,03,10,15,51,7.70
2012,03,10,15,52,7.80
2012,03,10,15,53,7.90
2012,03,10,15,54,8.00
2012,03,10,15,56,8.00
2012,03,10,15,57,8.10
2012,03,10,15,58,8.10
2012,03,10,15,59,8.20
2012,03,10,16,01,8.20
2012,03,10,16,02,8.20
2012,03,10,16,03,8.20
2012,03,10,16,04,8.20
2012,03,10,16,06,8.20
2012,03,10,16,07,8.20
2012,03,10,16,08,8.10
2012,03,10,16,09,8.10
2012,03,10,16,10,8.10
2012,03,10,16,11,8.10
2012,03,10,16,12,8.10
2012,03,10,16,14,8.10
2012,03,10,16,15,8.10
2012,03,10,16,16,8.10
2012,03,10,16,17,8.10
2012,03,10,16,19,8.10
2012,03,10,16,20,8.10
2012,03,10,16,21,8.10
2012,03,10,16,22,8.00
2012,03,10,16,23,8.00
2012,03,10,16,24,8.00
2012,03,10,16,25,8.00
2012,03,10,16,26,8.00
2012,03,10,16,27,8.00
2012,03,10,16,28,8.00
2012,03,10,16,29,7.90
2012,03,10,16,30,7.90
2012,03,10,16,31,7.90
2012,03,10,16,32,7.90
2012,03,10,16,33,7.90
2012,03,10,16,34,7.90
2012,03,10,16,35,7.80
2012,03,10,16,36,7.80
2012,03,10,16,37,7.80
2012,03,10,16,39,7.70
2012,03,10,16,40,7.70
2012,03,10,16,41,7.70
2012,03,10,16,43,7.70
2012,03,10,16,44,7.70
2012,03,10,16,45,7.70
2012,03,10,16,46,7.70
2012,03,10,16,47,7.70
2012,03,10,16,49,7.70
2012,03,10,16,50,7.70
2012,03,10,16,51,7.70
2012,03,10,16,53,7.70
2012,03,10,16,54,7.70
2012,03,10,16,55,7.80
2012,03,10,16,56,7.80
2012,03,10,16,57,7.80
2012,03,10,16,59,7.80
2012,03,10,17,00,7.80
2012,03,10,17,01,7.80
2012,03,10,17,02,7.80
2012,03,10,17,03,7.80
2012,03,10,17,04,7.80
2012,03,10,17,05,7.80
2012,03,10,17,06,7.80
2012,03,10,17,08,7.80
2012,03,10,17,09,7.80
2012,03,10,17,10,7.80
2012,03,10,17,11,7.80
2012,03,10,17,13,7.80
2012,03,10,17,14,7.80
2012,03,10,17,15,7.70
2012,03,10,17,17,7.70
2012,03,10,17,18,7.70
2012,03,10,17,19,7.70
2012,03,10,17,20,7.70
2012,03,10,17,21,7.70
2012,03,10,17,22,7.70
2012,03,10,17,23,7.70
2012,03,10,17,24,7.70
2012,03,10,17,26,7.70
2012,03,10,17,27,7.70
2012,03,10,17,30,7.70
2012,03,10,17,31,7.70
2012,03,10,17,32,7.60
2012,03,10,17,33,7.70
2012,03,10,17,35,7.70
2012,03,10,17,36,7.70
2012,03,10,17,37,7.70
2012,03,10,17,38,7.60
2012,03,10,17,39,7.60
2012,03,10,17,40,7.60
2012,03,10,17,41,7.60
2012,03,10,17,42,7.60
2012,03,10,17,44,7.60
2012,03,10,17,45,7.60
2012,03,10,17,46,7.60
2012,03,10,17,47,7.60
2012,03,10,17,48,7.60
2012,03,10,17,49,7.60
2012,03,10,17,50,7.60
2012,03,10,17,51,7.60
2012,03,10,17,52,7.60
2012,03,10,17,53,7.60
2012,03,10,17,54,7.70
2012,03,10,17,55,7.70
2012,03,10,17,56,7.70
2012,03,10,17,57,7.70
2012,03,10,17,58,7.70
2012,03,10,17,59,7.70
2012,03,10,18,00,7.70
2012,03,10,18,01,7.60
2012,03,10,18,02,7.60
2012,03,10,18,03,7.60
2012,03,10,18,04,7.60
2012,03,10,18,05,7.60
2012,03,10,18,06,7.50
2012,03,10,18,07,7.50
2012,03,10,18,08,7.50
2012,03,10,18,09,7.40
2012,03,10,18,10,7.40
2012,03,10,18,11,7.40
2012,03,10,18,12,7.40
2012,03,10,18,13,7.40
2012,03,10,18,14,7.30
2012,03,10,18,15,7.30
2012,03,10,18,16,7.30
2012,03,10,18,17,7.30
2012,03,10,18,18,7.30
2012,03,10,18,19,7.30
2012,03,10,18,20,7.30
2012,03,10,18,21,7.30
2012,03,10,18,22,7.30
2012,03,10,18,23,7.20
2012,03,10,18,25,7.20
2012,03,10,18,26,7.20
2012,03,10,18,27,7.20
2012,03,10,18,28,7.20
2012,03,10,18,29,7.20
2012,03,10,18,30,7.20
2012,03,10,18,31,7.20
2012,03,10,18,32,7.20
2012,03,10,18,33,7.20
2012,03,10,18,35,7.20
2012,03,10,18,36,7.20
2012,03,10,18,37,7.20
2012,03,10,18,38,7.20
2012,03,10,18,40,7.20
2012,03,10,18,41,7.10
2012,03,10,18,42,7.10
2012,03,10,18,43,7.10
2012,03,10,18,44,7.10
2012,03,10,18,46,7.10
2012,03,10,18,47,7.10
2012,03,10,18,48,7.10
2012,03,10,18,49,7.10
2012,03,10,18,51,7.10
2012,03,10,18,52,7.10
2012,03,10,18,53,7.10
2012,03,10,18,54,7.10
2012,03,10,18,56,7.10
2012,03,10,18,57,7.00
2012,03,10,18,58,7.00
2012,03,10,18,59,7.00
2012,03,10,19,00,7.00
2012,03,10,19,01,7.00
2012,03,10,19,03,7.00
2012,03,10,19,04,6.90
2012,03,10,19,05,6.90
2012,03,10,19,06,6.90
2012,03,10,19,08,6.90
2012,03,10,19,09,6.90
2012,03,10,19,10,6.90
2012,03,10,19,11,6.90
2012,03,10,19,13,6.90
2012,03,10,19,14,6.90
2012,03,10,19,15,6.90
2012,03,10,19,16,6.90
2012,03,10,19,17,6.90
2012,03,10,19,18,6.90
2012,03,10,19,19,6.90
2012,03,10,19,20,6.80
2012,03,10,19,21,6.80
2012,03,10,19,23,6.80
2012,03,10,19,24,6.80
2012,03,10,19,25,6.80
2012,03,10,19,26,6.80
2012,03,10,19,27,6.80
2012,03,10,19,29,6.80
2012,03,10,19,30,6.80
2012,03,10,19,31,6.80
2012,03,10,19,33,6.80
2012,03,10,19,34,6.80
2012,03,10,19,35,6.70
2012,03,10,19,36,6.70
2012,03,10,19,37,6.70
2012,03,10,19,39,6.70
2012,03,10,19,40,6.70
2012,03,10,19,41,6.70
2012,03,10,19,42,6.70
2012,03,10,19,44,6.70
2012,03,10,19,45,6.70
2012,03,10,19,46,6.60
2012,03,10,19,47,6.60
2012,03,10,19,48,6.60
2012,03,10,19,50,6.60
2012,03,10,19,51,6.60
2012,03,10,19,52,6.60
2012,03,10,19,53,6.60
2012,03,10,19,54,6.60
2012,03,10,19,56,6.60
2012,03,10,19,57,6.60
2012,03,10,19,58,6.60
2012,03,10,20,00,6.60
2012,03,10,20,01,6.60
2012,03,10,20,02,6.50
2012,03,10,20,04,6.50
2012,03,10,20,05,6.50
2012,03,10,20,06,6.50
2012,03,10,20,07,6.50
2012,03,10,20,08,6.50
2012,03,10,20,09,6.50
2012,03,10,20,10,6.50
2012,03,10,20,11,6.50
2012,03,10,20,12,6.50
2012,03,10,20,14,6.40
2012,03,10,20,17,6.40
2012,03,10,20,18,6.40
2012,03,10,20,19,6.40
2012,03,10,20,20,6.40
2012,03,10,20,21,6.40
2012,03,10,20,23,6.40
2012,03,10,20,24,6.40
2012,03,10,20,25,6.40
2012,03,10,20,26,6.40
2012,03,10,20,27,6.40
2012,03,10,20,28,6.40
2012,03,10,20,29,6.40
2012,03,10,20,30,6.40
2012,03,10,20,32,6.40
2012,03,10,20,33,6.40
2012,03,10,20,34,6.40
2012,03,10,20,36,6.40
2012,03,10,20,38,6.40
2012,03,10,20,39,6.50
2012,03,10,20,40,6.50
2012,03,10,20,41,6.50
2012,03,10,20,43,6.50
2012,03,10,20,44,6.50
2012,03,10,20,45,6.50
2012,03,10,20,46,6.50
2012,03,10,20,48,6.50
2012,03,10,20,49,6.50
2012,03,10,20,50,6.50
2012,03,10,20,51,6.60
2012,03,10,20,52,6.60
2012,03,10,20,54,6.60
2012,03,10,20,55,6.60
2012,03,10,20,56,6.60
2012,03,10,20,57,6.60
2012,03,10,20,59,6.60
2012,03,10,21,00,6.60
2012,03,10,21,01,6.60
2012,03,10,21,02,6.60
2012,03,10,21,04,6.60
2012,03,10,21,05,6.60
2012,03,10,21,06,6.60
2012,03,10,21,07,6.60
2012,03,10,21,09,6.60
2012,03,10,21,10,6.60
2012,03,10,21,11,6.60
2012,03,10,21,12,6.60
2012,03,10,21,14,6.60
2012,03,10,21,15,6.60
2012,03,10,21,16,6.60
2012,03,10,21,17,6.60
2012,03,10,21,18,6.60
2012,03,10,21,19,6.60
2012,03,10,21,21,6.60
2012,03,10,21,22,6.50
2012,03,10,21,23,6.50
2012,03,10,21,25,6.50
2012,03,10,21,26,6.40
2012,03,10,21,27,6.40
2012,03,10,21,28,6.40
2012,03,10,21,30,6.40
2012,03,10,21,31,6.40
2012,03,10,21,32,6.40
2012,03,10,21,33,6.40
2012,03,10,21,34,6.30